Погода в Пахотино

Россия / Рязанская область     54°22′14″N   40°07′06″E
темп.,
°C
ветер,
м/с
пор.,
м/с
влажн.,
%
обл.,
%
осадки,
мм/ч
давл.,
гПа
погр.,
м
27 февраля, сб
сб2700:00+2з8169292 0.0 1003710
03:000з7168875 0.0 1002632
06:00+1з81688100 0.0 1001791
09:00−2сз10169199 0.6 10031007
12:00−8ссз81287100 0.1 1005677
15:00−7ссз61087100 0.1 1009600
18:00−9ссз4892100 0.0 1010185
21:00−11ссз349569 0.0 101368
28 февраля, вс
вс2800:00−10ссз349689 0.0 101394
03:00−12ссз339678 0.1 101546
06:00−12сз239673 0.0 101545
09:00−10ссз359475 0.1 1016224
12:00−7сз249182 0.1 1015330
15:00−5ссз359291 0.1 1016373
18:00−5ссз249499 0.1 1016140
21:00−5ссв2296100 0.1 101963
1 марта, пн
пн100:00−9юз009693 0.0 102021
03:00−8сз119793 0.1 102221
06:00−10сз119782 0.1 102221
09:00−9юз119676 0.1 102421
12:00−5юз129289 0.0 1023246
15:00−2юз349287 0.0 1023397
18:00−3юз479592 0.1 1022231
21:00−2зюз499596 0.1 1020326
2 марта, вт
вт200:00−1юз61293100 0.0 1017464
03:000зюз71397100 1.0 1014654
06:00+1з61394100 0.4 1010628
09:00+1зсз71398100 0.6 1008701
12:00+1сз71293100 0.6 1008799
15:00+1сз7129098 0.7 1008776
18:00−2сз5129030 0.0 1009329
21:00−1сз6139164 0.1 1010544
3 марта, ср
ср300:00−2сз7149098 0.0 1010648
03:00−3сз6129391 0.1 1011585
06:00−3сз6129289 0.1 1012674
09:00−3сз7139189 0.2 1014701
12:00−2ссз8128898 0.1 1015961
15:00−2ссз7118699 0.2 10161157
18:00−4сз5128765 0.1 1017305
21:00−6сз5119033 0.1 1019269